| time (UTC) | temp F | wind direction | speed knots | gust knots | rain 1hr in | rain 24hr in | rain mn in | humidity % | barometer mb |
| 20260503203506 | 72 | 135 | 0.0 | 2.6 | 0.00 | 0.00 | 0.00 | 46 | 1019.9 |
| 20260503203003 | 72 | 103 | 1.7 | 3.5 | 0.00 | 0.00 | 0.00 | 45 | 1019.7 |
| 20260503202501 | 70 | 273 | 0.0 | 2.6 | 0.00 | 0.00 | 0.00 | 47 | 1020.0 |
| 20260503201959 | 71 | 237 | 2.6 | 3.5 | 0.00 | 0.00 | 0.00 | 47 | 1019.9 |
| 20260503201456 | 70 | 245 | 1.7 | 3.5 | 0.00 | 0.00 | 0.00 | 49 | 1020.1 |
| 20260503200954 | 69 | 172 | 2.6 | 2.6 | 0.00 | 0.00 | 0.00 | 47 | 1019.9 |
| 20260503200450 | 69 | 288 | 0.9 | 3.5 | 0.00 | 0.00 | 0.00 | 52 | 1019.9 |
| 20260503195946 | 71 | 239 | 1.7 | 2.6 | 0.00 | 0.00 | 0.00 | 46 | 1019.9 |
| 20260503195444 | 70 | 195 | 0.0 | 3.5 | 0.00 | 0.00 | 0.00 | 48 | 1020.0 |
| 20260503194940 | 69 | 258 | 1.7 | 3.5 | 0.00 | 0.00 | 0.00 | 48 | 1020.1 |
| 20260503194437 | 70 | 256 | 1.7 | 3.5 | 0.00 | 0.00 | 0.00 | 49 | 1020.2 |
| 20260503193932 | 70 | 242 | 2.6 | 4.3 | 0.00 | 0.00 | 0.00 | 47 | 1020.4 |
| 20260503193428 | 70 | 267 | 2.6 | 3.5 | 0.00 | 0.00 | 0.00 | 47 | 1020.2 |
| 20260503192924 | 69 | 314 | 1.7 | 4.3 | 0.00 | 0.00 | 0.00 | 46 | 1020.5 |
| 20260503192421 | 69 | 296 | 1.7 | 3.5 | 0.00 | 0.00 | 0.00 | 48 | 1020.4 |
| 20260503191916 | 73 | 36 | 2.6 | 2.6 | 0.00 | 0.00 | 0.00 | 44 | 1020.6 |
| 20260503191414 | 72 | 213 | 1.7 | 4.3 | 0.00 | 0.00 | 0.00 | 47 | 1020.7 |
| 20260503190910 | 72 | 153 | 0.0 | 1.7 | 0.00 | 0.00 | 0.00 | 46 | 1020.7 |
| 20260503190408 | 71 | 227 | 0.9 | 2.6 | 0.00 | 0.00 | 0.00 | 44 | 1021.0 |
| 20260503185904 | 72 | 271 | 0.9 | 2.6 | 0.00 | 0.00 | 0.00 | 48 | 1020.8 |
| 20260503185401 | 70 | 237 | 1.7 | 4.3 | 0.00 | 0.00 | 0.00 | 47 | 1020.8 |
| 20260503184900 | 70 | 252 | 2.6 | 4.3 | 0.00 | 0.00 | 0.00 | 47 | 1020.8 |
| 20260503184356 | 72 | 266 | 2.6 | 3.5 | 0.00 | 0.00 | 0.00 | 45 | 1021.0 |
| 20260503183853 | 71 | 237 | 1.7 | 4.3 | 0.00 | 0.00 | 0.00 | 46 | 1021.1 |
| 20260503183350 | 71 | 335 | 0.0 | 2.6 | 0.00 | 0.00 | 0.00 | 46 | 1021.1 |
| 20260503182847 | 70 | 263 | 2.6 | 4.3 | 0.00 | 0.00 | 0.00 | 45 | 1021.1 |
| 20260503182346 | 71 | 272 | 2.6 | 4.3 | 0.00 | 0.00 | 0.00 | 47 | 1021.3 |
| 20260503181842 | 69 | 218 | 1.7 | 3.5 | 0.00 | 0.00 | 0.00 | 45 | 1021.3 |
| 20260503181340 | 71 | 287 | 1.7 | 5.2 | 0.00 | 0.00 | 0.00 | 44 | 1021.1 |
| 20260503180836 | 71 | 351 | 1.7 | 3.5 | 0.00 | 0.00 | 0.00 | 46 | 1021.3 |
| 20260503180334 | 72 | 321 | 1.7 | 3.5 | 0.00 | 0.00 | 0.00 | 42 | 1021.2 |
| 20260503175830 | 74 | 243 | 1.7 | 2.6 | 0.00 | 0.00 | 0.00 | 42 | 1021.4 |
| 20260503175328 | 73 | 12 | 2.6 | 2.6 | 0.00 | 0.00 | 0.00 | 40 | 1021.3 |
| 20260503174823 | 70 | 96 | 3.5 | 3.5 | 0.00 | 0.00 | 0.00 | 42 | 1021.4 |
| 20260503174322 | 73 | 331 | 2.6 | 2.6 | 0.00 | 0.00 | 0.00 | 42 | 1021.2 |
| 20260503173817 | 71 | 42 | 4.3 | 5.2 | 0.00 | 0.00 | 0.00 | 43 | 1021.2 |
| 20260503173314 | 72 | 301 | 3.5 | 7.0 | 0.00 | 0.00 | 0.00 | 40 | 1021.2 |
| 20260503172811 | 73 | 98 | 0.0 | 1.7 | 0.00 | 0.00 | 0.00 | 43 | 1021.5 |
| 20260503172309 | 72 | 40 | 0.0 | 2.6 | 0.00 | 0.00 | 0.00 | 39 | 1021.4 |
| 20260503171804 | 72 | 3 | 2.6 | 5.2 | 0.00 | 0.00 | 0.00 | 40 | 1021.4 |
| 20260503171301 | 72 | 115 | 0.0 | 2.6 | 0.00 | 0.00 | 0.00 | 43 | 1021.5 |
| 20260503170758 | 72 | 137 | 0.9 | 2.6 | 0.00 | 0.00 | 0.00 | 40 | 1021.4 |
| 20260503170255 | 71 | 81 | 0.0 | 3.5 | 0.00 | 0.00 | 0.00 | 42 | 1021.5 |
| 20260503160217 | 67 | 180 | 0.9 | 2.6 | 0.00 | 0.00 | 0.00 | 46 | 1021.9 |
| 20260503150647 | 63 | 99 | 2.6 | 3.5 | 0.00 | 0.00 | 0.00 | 52 | 1022.0 |
| 20260503150143 | 63 | 113 | 2.6 | 4.3 | 0.00 | 0.00 | 0.00 | 52 | 1022.1 |
| 20260503140108 | 60 | 141 | 1.7 | 4.3 | 0.00 | 0.00 | 0.00 | 67 | 1021.6 |
| 20260503131037 | 56 | 159 | 1.7 | 4.3 | 0.00 | 0.00 | 0.00 | 88 | 1021.5 |
| 20260503130534 | 55 | 66 | 3.5 | 4.3 | 0.00 | 0.00 | 0.00 | 92 | 1021.5 |
| 20260503110425 | 48 | 193 | 0.0 | 0.0 | 0.00 | 0.00 | 0.00 | 99 | 1020.3 |
| 20260503090316 | 49 | 69 | 0.0 | 0.9 | 0.00 | 0.00 | 0.00 | 99 | 1018.9 |
| 20260503081243 | 50 | 77 | 0.0 | 0.0 | 0.00 | 0.00 | 0.00 | 99 | 1018.6 |
| 20260503080738 | 50 | 173 | 0.0 | 0.9 | 0.00 | 0.00 | 0.00 | 99 | 1018.5 |
| 20260503080236 | 50 | 78 | 1.7 | 1.7 | 0.00 | 0.00 | 0.00 | 99 | 1018.6 |
| 20260503072713 | 50 | 209 | 0.0 | 0.0 | 0.00 | 0.00 | 0.00 | 99 | 1018.1 |
| 20260503072209 | 50 | 209 | 0.0 | 0.0 | 0.00 | 0.00 | 0.00 | 99 | 1018.1 |
| 20260503071706 | 50 | 23 | 0.0 | 0.0 | 0.00 | 0.00 | 0.00 | 99 | 1018.2 |
| 20260503071203 | 50 | 46 | 1.7 | 2.6 | 0.00 | 0.00 | 0.00 | 99 | 1018.3 |
| 20260503070659 | 50 | 113 | 0.0 | 2.6 | 0.00 | 0.00 | 0.00 | 99 | 1018.1 |
| 20260503070158 | 50 | 89 | 1.7 | 1.7 | 0.00 | 0.00 | 0.00 | 99 | 1018.1 |
| 20260503060122 | 51 | 98 | 0.0 | 1.7 | 0.00 | 0.00 | 0.00 | 99 | 1017.9 |
| 20260503055114 | 51 | 102 | 0.9 | 2.6 | 0.00 | 0.00 | 0.00 | 99 | 1018.0 |
| 20260503054609 | 51 | 80 | 0.0 | 0.9 | 0.00 | 0.00 | 0.00 | 99 | 1017.9 |
| 20260503054106 | 52 | 85 | 2.6 | 2.6 | 0.00 | 0.00 | 0.00 | 99 | 1018.0 |
| 20260503053605 | 51 | 101 | 0.9 | 0.9 | 0.00 | 0.00 | 0.00 | 99 | 1017.8 |
| 20260503053103 | 51 | 59 | 1.7 | 1.7 | 0.00 | 0.00 | 0.00 | 99 | 1017.9 |
| 20260503052559 | 52 | 17 | 0.0 | 0.9 | 0.00 | 0.00 | 0.00 | 98 | 1018.0 |
| 20260503052055 | 52 | 119 | 0.0 | 2.6 | 0.00 | 0.00 | 0.00 | 98 | 1017.8 |
| 20260503051550 | 52 | 69 | 0.9 | 2.6 | 0.00 | 0.00 | 0.00 | 98 | 1017.8 |
| 20260503051049 | 52 | 55 | 0.0 | 1.7 | 0.00 | 0.00 | 0.00 | 98 | 1017.7 |
| 20260503050544 | 52 | 233 | 0.0 | 0.9 | 0.00 | 0.00 | 0.00 | 98 | 1017.8 |
| 20260503050042 | 52 | 102 | 3.5 | 3.5 | 0.00 | 0.00 | 0.00 | 98 | 1017.7 |
| 20260503045538 | 52 | 119 | 0.0 | 1.7 | 0.00 | 0.00 | 0.00 | 98 | 1017.7 |
| 20260503045036 | 52 | 114 | 2.6 | 2.6 | 0.00 | 0.00 | 0.00 | 98 | 1017.6 |
| 20260503044533 | 52 | 81 | 0.0 | 1.7 | 0.00 | 0.00 | 0.00 | 98 | 1017.4 |
| 20260503044030 | 53 | 197 | 0.0 | 1.7 | 0.00 | 0.00 | 0.00 | 97 | 1017.3 |
| 20260503043526 | 53 | 114 | 0.0 | 3.5 | 0.00 | 0.00 | 0.00 | 97 | 1017.5 |
| 20260503043023 | 53 | 134 | 0.0 | 0.9 | 0.00 | 0.00 | 0.00 | 97 | 1017.3 |
| 20260503042520 | 53 | 55 | 0.0 | 2.6 | 0.00 | 0.00 | 0.00 | 97 | 1017.4 |
| 20260503042016 | 53 | 54 | 0.0 | 2.6 | 0.00 | 0.00 | 0.00 | 97 | 1017.4 |
| 20260503041513 | 53 | 88 | 0.9 | 5.2 | 0.00 | 0.00 | 0.00 | 97 | 1017.2 |
| 20260503041011 | 53 | 121 | 0.9 | 7.0 | 0.00 | 0.00 | 0.00 | 97 | 1017.1 |
| 20260503040508 | 53 | 88 | 0.9 | 2.6 | 0.00 | 0.00 | 0.00 | 97 | 1017.2 |
| 20260503040005 | 53 | 128 | 0.9 | 4.3 | 0.00 | 1.01 | 1.01 | 97 | 1017.1 |
| 20260503035502 | 53 | 74 | 1.7 | 4.3 | 0.00 | 1.01 | 1.01 | 97 | 1017.0 |
| 20260503035000 | 54 | 59 | 1.7 | 1.7 | 0.00 | 1.01 | 1.01 | 97 | 1017.1 |
| 20260503034456 | 54 | 105 | 2.6 | 3.5 | 0.00 | 1.01 | 1.01 | 97 | 1017.0 |
| 20260503033953 | 54 | 99 | 2.6 | 3.5 | 0.00 | 1.01 | 1.01 | 97 | 1016.9 |
| 20260503033451 | 54 | 106 | 2.6 | 2.6 | 0.00 | 1.01 | 1.01 | 96 | 1016.8 |
| 20260503032949 | 54 | 77 | 2.6 | 3.5 | 0.00 | 1.01 | 1.01 | 96 | 1016.6 |
| 20260503032447 | 54 | 98 | 0.0 | 4.3 | 0.00 | 1.01 | 1.01 | 96 | 1016.6 |
| 20260503031944 | 55 | 104 | 3.5 | 7.0 | 0.00 | 1.01 | 1.01 | 96 | 1016.6 |
| 20260503031442 | 55 | 32 | 0.9 | 2.6 | 0.00 | 1.01 | 1.01 | 96 | 1016.4 |
| 20260503030938 | 55 | 106 | 4.3 | 5.2 | 0.00 | 1.01 | 1.01 | 97 | 1016.4 |
| 20260503030435 | 55 | 72 | 1.7 | 5.2 | 0.00 | 1.01 | 1.01 | 97 | 1016.3 |
| 20260503025932 | 55 | 71 | 3.5 | 4.3 | 0.00 | 1.01 | 1.01 | 97 | 1016.3 |
| 20260503025429 | 55 | 73 | 1.7 | 4.3 | 0.00 | 1.01 | 1.01 | 97 | 1016.3 |
| 20260503024927 | 55 | 92 | 4.3 | 6.1 | 0.00 | 1.01 | 1.01 | 97 | 1016.3 |
| 20260503024423 | 55 | 114 | 2.6 | 7.0 | 0.00 | 1.01 | 1.01 | 97 | 1016.1 |
| 20260503023920 | 55 | 63 | 0.9 | 1.7 | 0.00 | 1.01 | 1.01 | 98 | 1016.1 |
| 20260503023417 | 55 | 107 | 1.7 | 4.3 | 0.00 | 1.01 | 1.01 | 98 | 1015.9 |
| 20260503022913 | 55 | 39 | 3.5 | 3.5 | 0.00 | 1.01 | 1.01 | 98 | 1015.8 |
| 20260503022408 | 55 | 112 | 0.0 | 1.7 | 0.00 | 1.01 | 1.01 | 98 | 1015.7 |
| 20260503021904 | 55 | 86 | 1.7 | 1.7 | 0.00 | 1.01 | 1.01 | 98 | 1015.7 |
| 20260503021401 | 55 | 101 | 1.7 | 2.6 | 0.00 | 1.01 | 1.01 | 98 | 1015.5 |
| 20260503020858 | 55 | 91 | 0.0 | 2.6 | 0.00 | 1.01 | 1.01 | 98 | 1015.5 |
| 20260503020356 | 55 | 60 | 0.0 | 2.6 | 0.00 | 1.01 | 1.01 | 98 | 1015.4 |
| 20260503015852 | 55 | 135 | 0.0 | 0.9 | 0.00 | 1.01 | 1.01 | 98 | 1015.4 |
| 20260503015349 | 55 | 49 | 0.0 | 1.7 | 0.00 | 1.01 | 1.01 | 98 | 1015.5 |
| 20260503014844 | 55 | 129 | 0.0 | 3.5 | 0.00 | 1.01 | 1.01 | 98 | 1015.1 |
| 20260503014343 | 54 | 89 | 0.0 | 2.6 | 0.00 | 1.01 | 1.01 | 98 | 1015.0 |
| 20260503013840 | 55 | 124 | 0.0 | 1.7 | 0.00 | 1.01 | 1.01 | 98 | 1015.1 |
| 20260503013337 | 55 | 86 | 2.6 | 2.6 | 0.00 | 1.01 | 1.01 | 98 | 1015.0 |
| 20260503012834 | 55 | 202 | 0.0 | 1.7 | 0.00 | 1.01 | 1.01 | 98 | 1015.3 |
| 20260503012332 | 55 | 119 | 0.0 | 1.7 | 0.00 | 1.01 | 1.01 | 98 | 1015.2 |
| 20260503011829 | 55 | 69 | 2.6 | 2.6 | 0.00 | 1.01 | 1.01 | 98 | 1015.2 |
| 20260503011325 | 55 | 68 | 0.9 | 0.9 | 0.00 | 1.01 | 1.01 | 98 | 1015.2 |
| 20260503010822 | 55 | 106 | 0.9 | 2.6 | 0.00 | 1.01 | 1.01 | 98 | 1015.1 |
| 20260503010319 | 55 | 87 | 1.7 | 2.6 | 0.00 | 1.01 | 1.01 | 98 | 1015.3 |
| 20260503005816 | 55 | 107 | 0.9 | 4.3 | 0.00 | 1.01 | 1.01 | 98 | 1015.2 |
| 20260503005313 | 55 | 64 | 0.9 | 2.6 | 0.00 | 1.01 | 1.01 | 98 | 1015.1 |
| 20260503004809 | 55 | 78 | 1.7 | 1.7 | 0.00 | 1.01 | 1.01 | 98 | 1014.9 |
| 20260503004307 | 55 | 113 | 0.0 | 2.6 | 0.00 | 1.01 | 1.01 | 98 | 1014.8 |
| 20260503003805 | 55 | 110 | 2.6 | 4.3 | 0.00 | 1.01 | 1.01 | 98 | 1015.0 |
| 20260503003301 | 55 | 88 | 0.9 | 1.7 | 0.00 | 1.01 | 1.01 | 98 | 1014.6 |
| 20260503002758 | 55 | 206 | 0.0 | 4.3 | 0.00 | 1.01 | 1.01 | 98 | 1014.2 |
| 20260503002255 | 55 | 96 | 1.7 | 3.5 | 0.00 | 1.01 | 1.01 | 98 | 1014.2 |
| 20260503001751 | 55 | 120 | 0.0 | 1.7 | 0.00 | 1.01 | 1.01 | 98 | 1014.2 |
| 20260503001248 | 55 | 199 | 0.0 | 1.7 | 0.00 | 1.01 | 1.01 | 98 | 1014.2 |
| 20260503000746 | 55 | 115 | 4.3 | 5.2 | 0.00 | 1.01 | 1.01 | 98 | 1014.4 |
| 20260503000243 | 55 | 167 | 0.9 | 4.3 | 0.00 | 1.01 | 1.01 | 98 | 1014.5 |
| 20260502235740 | 55 | 102 | 0.0 | 2.6 | 0.00 | 1.01 | 1.01 | 98 | 1014.2 |
| 20260502235237 | 56 | 129 | 0.0 | 1.7 | 0.00 | 1.01 | 1.01 | 98 | 1014.0 |
| 20260502234733 | 55 | 119 | 0.0 | 1.7 | 0.00 | 1.01 | 1.01 | 98 | 1013.9 |
| 20260502234231 | 55 | 87 | 2.6 | 5.2 | 0.00 | 1.01 | 1.01 | 98 | 1013.9 |
| 20260502233727 | 55 | 93 | 1.7 | 5.2 | 0.00 | 1.01 | 1.01 | 99 | 1014.1 |
| 20260502233224 | 56 | 94 | 1.7 | 6.1 | 0.00 | 1.01 | 1.01 | 99 | 1014.1 |
| 20260502232719 | 56 | 111 | 2.6 | 4.3 | 0.00 | 1.01 | 1.01 | 99 | 1013.8 |
| 20260502232217 | 56 | 89 | 1.7 | 2.6 | 0.00 | 1.01 | 1.01 | 99 | 1013.5 |
| 20260502231713 | 56 | 117 | 2.6 | 7.0 | 0.00 | 1.01 | 1.01 | 99 | 1013.5 |
| 20260502231211 | 56 | 116 | 1.7 | 5.2 | 0.00 | 1.01 | 1.01 | 99 | 1013.2 |
| 20260502230710 | 56 | 105 | 2.6 | 5.2 | 0.00 | 1.01 | 1.01 | 99 | 1013.3 |
| 20260502230208 | 56 | 116 | 0.9 | 2.6 | 0.00 | 1.01 | 1.01 | 99 | 1013.4 |
| 20260502225703 | 56 | 106 | 5.2 | 5.2 | 0.00 | 1.01 | 1.01 | 99 | 1013.3 |
| 20260502225200 | 56 | 67 | 1.7 | 2.6 | 0.00 | 1.01 | 1.01 | 99 | 1013.5 |
| 20260502224656 | 56 | 70 | 1.7 | 3.5 | 0.00 | 1.01 | 1.01 | 99 | 1013.3 |
| 20260502224153 | 56 | 96 | 1.7 | 4.3 | 0.00 | 1.01 | 1.01 | 99 | 1013.3 |
| 20260502223651 | 56 | 104 | 1.7 | 2.6 | 0.02 | 1.01 | 1.01 | 99 | 1013.5 |
| 20260502223149 | 56 | 99 | 2.6 | 4.3 | 0.02 | 1.01 | 1.01 | 99 | 1013.6 |
| 20260502222647 | 56 | 80 | 2.6 | 3.5 | 0.00 | 1.01 | 1.01 | 99 | 1013.5 |
| 20260502222143 | 56 | 110 | 1.7 | 9.6 | 0.00 | 1.01 | 1.01 | 99 | 1013.4 |
| 20260502221638 | 56 | 51 | 1.7 | 5.2 | 0.00 | 1.01 | 1.01 | 99 | 1013.5 |
| 20260502221136 | 57 | 101 | 1.7 | 2.6 | 0.02 | 1.01 | 1.01 | 99 | 1013.2 |
| 20260502220631 | 57 | 84 | 1.7 | 4.3 | 0.02 | 1.01 | 1.01 | 99 | 1013.3 |
| 20260502220122 | 57 | 141 | 0.0 | 1.7 | 0.00 | 1.00 | 1.00 | 99 | 1013.0 |
| 20260502215620 | 57 | 125 | 0.9 | 2.6 | 0.00 | 1.00 | 1.00 | 99 | 1013.0 |
| 20260502215116 | 56 | 96 | 2.6 | 7.0 | 0.00 | 1.00 | 1.00 | 99 | 1012.9 |
| 20260502214613 | 56 | 103 | 1.7 | 2.6 | 0.00 | 1.00 | 1.00 | 99 | 1012.7 |
| 20260502214111 | 57 | 148 | 1.7 | 1.7 | 0.00 | 1.00 | 1.00 | 99 | 1012.8 |
| 20260502213608 | 56 | 98 | 5.2 | 5.2 | 0.00 | 1.00 | 1.00 | 99 | 1012.7 |
| 20260502213105 | 56 | 121 | 1.7 | 5.2 | 0.00 | 1.00 | 1.00 | 99 | 1012.7 |
| 20260502212604 | 56 | 84 | 0.0 | 8.7 | 0.00 | 1.00 | 1.00 | 99 | 1012.3 |
| 20260502212101 | 56 | 166 | 0.0 | 2.6 | 0.00 | 1.00 | 1.00 | 99 | 1012.4 |
| 20260502211556 | 56 | 135 | 0.9 | 5.2 | 0.00 | 1.00 | 1.00 | 99 | 1012.3 |
| 20260502211054 | 56 | 78 | 1.7 | 5.2 | 0.00 | 1.00 | 1.00 | 99 | 1012.3 |
| 20260502210551 | 56 | 68 | 1.7 | 7.0 | 0.00 | 1.00 | 1.00 | 99 | 1012.5 |
| 20260502210048 | 57 | 91 | 1.7 | 4.3 | 0.00 | 1.00 | 1.00 | 99 | 1012.3 |
| 20260502205544 | 56 | 78 | 0.9 | 3.5 | 0.00 | 1.00 | 1.00 | 99 | 1012.2 |
| 20260502205042 | 56 | 82 | 1.7 | 7.0 | 0.00 | 1.00 | 1.00 | 99 | 1012.3 |
| 20260502204538 | 57 | 114 | 5.2 | 7.8 | 0.00 | 1.00 | 1.00 | 99 | 1012.1 |
| 20260502204036 | 57 | 98 | 1.7 | 4.3 | 0.00 | 1.00 | 1.00 | 99 | 1012.2 |